Location: Baumgarten
(49.0970°N, 12.7493°E)
Time: 08:44:30
(UTC+00:00)

Cosmos 1844 Rocket - Pass Details

Date: 05 July 2020
Orbit: 826 x 843 km, 71.0° (Epoch: 04 August)

Event Time Altitude Azimuth Distance (km) Brightness Sun altitude
Rises 21:05:56 0° 324° (NW) 3,377 7.8 -12.8°
Reaches altitude 10° 21:08:39 10° 313° (NW) 2,438 6.4 -13.0°
Maximum altitude 21:13:20 28° 256° (WSW) 1,496 4.1 -13.4°
Drops below altitude 10° 21:18:00 10° 198° (SSW) 2,423 4.7 -13.7°
Enters shadow 21:18:16 - 197° (SSW) 2,509 4.7 -13.8°
